Weather in Vtorye Klyuchiki

Russia / Perm Krai     57°02′46″N   56°41′17″E
temp.,
°C
wind,
m/s
gust,
m/s
humid.,
%
clouds,
%
prec.,
mm/h
press.,
hPa
HPBL,
m
28 february, sun
sun2823:00−16ese5119192 0.4 1007373
02:00−15e4109396 0.1 1006367
05:00−14e5109498 0.4 1006418
08:00−15ene4109399 0.3 1006417
11:00−13ene6992100 0.6 1006518
14:00−11ene6991100 0.3 1006594
17:00−11ene5891100 0.6 1007608
20:00−13ene499399 0.1 1009372
1 march, mon
mon123:00−15ene499396 0.3 1011350
02:00−16ne489598 0.1 1013298
05:00−17ne369696 0.3 1014205
08:00−18ne369696 0.2 1016183
11:00−16ne349288 0.3 1017325
14:00−13ne2386100 0.0 1017465
17:00−12n2289100 0.1 1017389
20:00−19nnw0110091 0.0 101720
2 march, tue
tue223:00−19sw229754 0.0 101720
02:00−19ssw3310072 0.0 101541
05:00−20ssw4109986 0.1 1014222
08:00−20ssw61297100 0.0 1011336
11:00−17s71293100 0.0 1009388
14:00−13s71293100 0.1 1006478
17:00−12ssw71293100 0.4 1005584
20:00−13ssw61294100 0.5 1003608
3 march, wed
wed323:00−12s51293100 0.8 1002539
02:00−13s51095100 0.3 1001466
05:00−12s4895100 0.9 1000391
08:00−11sse3696100 0.8 998281
11:00−8sse1291100 1.3 998282
14:00−6n2291100 0.3 997301
17:00−6nnw2391100 0.5 997372
20:00−8wnw2296100 0.1 99827
4 march, thu
thu423:00−9wnw339697 0.4 100056
02:00−11nw489298 0.1 1001202
05:00−14wnw349683 0.1 100343
08:00−15w339651 0.0 100445
11:00−9w479071 0.1 1005441
14:00−7w578596 0.1 1005851
17:00−7wsw588798 0.1 1005893
20:00−9sw61292100 0.1 1003524